| time (UTC) | temp F | wind direction | speed knots | gust knots | rain 1hr in | rain 24hr in | rain mn in | humidity % | barometer mb |
| 20260508135516 | 64 | 135 | 1.7 | 3.5 | 0.00 | 0.00 | 0.00 | 81 | 1014.4 |
| 20260508134516 | 64 | 135 | 2.6 | 3.5 | 0.00 | 0.00 | 0.00 | 82 | 1014.4 |
| 20260508133516 | 64 | 113 | 3.5 | 7.0 | 0.00 | 0.00 | 0.00 | 84 | 1014.3 |
| 20260508132516 | 63 | 90 | 3.5 | 7.0 | 0.00 | 0.00 | 0.00 | 86 | 1014.4 |
| 20260508131536 | 62 | 135 | 1.7 | 3.5 | 0.00 | 0.00 | 0.00 | 88 | 1014.2 |
| 20260508130516 | 62 | 158 | 3.5 | 4.3 | 0.00 | 0.00 | 0.00 | 89 | 1014.4 |
| 20260508125536 | 61 | 203 | 0.9 | 2.6 | 0.00 | 0.00 | 0.00 | 90 | 1014.4 |
| 20260508124536 | 60 | 0.0 | 0.0 | 0.00 | 0.00 | 0.00 | 91 | 1014.6 | |
| 20260508123516 | 59 | 0.0 | 0.0 | 0.00 | 0.00 | 0.00 | 91 | 1014.6 | |
| 20260508122516 | 59 | 0.0 | 0.0 | 0.00 | 0.00 | 0.00 | 91 | 1014.6 | |
| 20260508121536 | 58 | 0.0 | 0.0 | 0.00 | 0.00 | 0.00 | 91 | 1014.1 | |
| 20260508120516 | 58 | 0.0 | 1.7 | 0.00 | 0.00 | 0.00 | 90 | 1014.2 | |
| 20260508115516 | 58 | 0.0 | 1.7 | 0.00 | 0.00 | 0.00 | 90 | 1014.3 | |
| 20260508114556 | 58 | 0.0 | 0.0 | 0.00 | 0.00 | 0.00 | 89 | 1014.2 | |
| 20260508113516 | 58 | 0.0 | 0.0 | 0.00 | 0.00 | 0.00 | 89 | 1014.3 | |
| 20260508112516 | 58 | 0.0 | 0.0 | 0.00 | 0.00 | 0.00 | 90 | 1014.5 | |
| 20260508111516 | 58 | 0.0 | 0.9 | 0.00 | 0.00 | 0.00 | 90 | 1014.6 | |
| 20260508110536 | 59 | 0.0 | 0.0 | 0.00 | 0.00 | 0.00 | 90 | 1014.8 | |
| 20260508105516 | 58 | 0.0 | 1.7 | 0.00 | 0.00 | 0.00 | 91 | 1014.4 | |
| 20260508104516 | 58 | 135 | 0.9 | 2.6 | 0.00 | 0.00 | 0.00 | 91 | 1014.1 |
| 20260508103516 | 58 | 0.0 | 1.7 | 0.00 | 0.00 | 0.00 | 91 | 1014.2 | |
| 20260508102516 | 58 | 0.0 | 0.0 | 0.00 | 0.00 | 0.00 | 92 | 1014.3 | |
| 20260508101516 | 58 | 0.0 | 2.6 | 0.00 | 0.00 | 0.00 | 92 | 1014.2 | |
| 20260508100536 | 58 | 0.0 | 0.0 | 0.00 | 0.00 | 0.00 | 91 | 1014.2 | |
| 20260508095516 | 58 | 0.0 | 0.0 | 0.00 | 0.00 | 0.00 | 91 | 1014.2 | |
| 20260508094516 | 58 | 0.0 | 0.0 | 0.00 | 0.00 | 0.00 | 91 | 1014.1 | |
| 20260508093536 | 58 | 0.0 | 0.0 | 0.00 | 0.00 | 0.00 | 91 | 1014.2 | |
| 20260508092556 | 59 | 0.0 | 0.0 | 0.00 | 0.00 | 0.00 | 91 | 1014.1 | |
| 20260508091515 | 59 | 0.0 | 0.0 | 0.00 | 0.00 | 0.00 | 91 | 1014.1 | |
| 20260508090516 | 59 | 0.0 | 0.0 | 0.00 | 0.00 | 0.00 | 90 | 1014.2 | |
| 20260508085537 | 59 | 0.0 | 0.0 | 0.00 | 0.00 | 0.00 | 90 | 1014.2 | |
| 20260508084517 | 59 | 0.0 | 1.7 | 0.00 | 0.00 | 0.00 | 89 | 1014.1 | |
| 20260508083517 | 59 | 0.0 | 0.0 | 0.00 | 0.00 | 0.00 | 89 | 1014.2 | |
| 20260508082517 | 60 | 0.0 | 0.9 | 0.00 | 0.00 | 0.00 | 89 | 1014.2 | |
| 20260508081537 | 60 | 0.0 | 0.9 | 0.00 | 0.00 | 0.00 | 88 | 1014.3 | |
| 20260508080517 | 61 | 0.0 | 0.0 | 0.00 | 0.00 | 0.00 | 88 | 1014.6 | |
| 20260508075537 | 61 | 0.0 | 0.0 | 0.00 | 0.00 | 0.00 | 88 | 1014.8 | |
| 20260508074517 | 61 | 0.0 | 0.0 | 0.00 | 0.00 | 0.00 | 88 | 1015.2 | |
| 20260508073537 | 61 | 0.0 | 0.0 | 0.00 | 0.00 | 0.00 | 88 | 1015.5 | |
| 20260508072517 | 61 | 0.0 | 0.0 | 0.00 | 0.00 | 0.00 | 88 | 1015.6 | |
| 20260508071517 | 61 | 0.0 | 0.0 | 0.00 | 0.00 | 0.00 | 87 | 1015.5 | |
| 20260508070517 | 60 | 0.0 | 0.0 | 0.00 | 0.00 | 0.00 | 87 | 1015.4 | |
| 20260508065516 | 60 | 0.0 | 0.0 | 0.00 | 0.00 | 0.00 | 87 | 1015.4 | |
| 20260508064517 | 60 | 0.0 | 0.0 | 0.00 | 0.00 | 0.00 | 87 | 1015.1 | |
| 20260508063517 | 61 | 0.0 | 0.0 | 0.00 | 0.00 | 0.00 | 87 | 1015.3 | |
| 20260508062537 | 61 | 0.0 | 0.0 | 0.00 | 0.00 | 0.00 | 87 | 1015.4 | |
| 20260508061517 | 61 | 0.0 | 0.0 | 0.00 | 0.00 | 0.00 | 87 | 1015.5 | |
| 20260508060517 | 61 | 0.0 | 1.7 | 0.00 | 0.00 | 0.00 | 87 | 1015.4 | |
| 20260508055517 | 60 | 0.0 | 0.0 | 0.00 | 0.00 | 0.00 | 86 | 1015.7 | |
| 20260508054537 | 61 | 0.0 | 0.0 | 0.00 | 0.00 | 0.00 | 85 | 1015.6 | |
| 20260508053516 | 61 | 0.0 | 0.0 | 0.00 | 0.00 | 0.00 | 85 | 1015.7 | |
| 20260508052517 | 61 | 0.0 | 0.0 | 0.00 | 0.00 | 0.00 | 85 | 1015.9 | |
| 20260508051517 | 61 | 0.0 | 0.0 | 0.00 | 0.00 | 0.00 | 85 | 1015.9 | |
| 20260508050517 | 61 | 0.0 | 0.0 | 0.00 | 0.00 | 0.00 | 84 | 1015.9 | |
| 20260508045516 | 61 | 0.0 | 0.0 | 0.00 | 0.00 | 0.00 | 84 | 1015.9 | |
| 20260508044517 | 61 | 0.0 | 0.0 | 0.00 | 0.00 | 0.00 | 82 | 1015.8 | |
| 20260508043516 | 61 | 0.0 | 0.0 | 0.00 | 0.00 | 0.00 | 82 | 1015.5 | |
| 20260508042516 | 61 | 0.0 | 0.0 | 0.00 | 0.00 | 0.00 | 81 | 1015.7 | |
| 20260508041517 | 61 | 0.0 | 0.0 | 0.00 | 0.00 | 0.00 | 81 | 1015.4 | |
| 20260508040516 | 61 | 0.0 | 0.0 | 0.00 | 0.00 | 0.00 | 81 | 1015.7 | |
| 20260508035516 | 61 | 0.0 | 0.0 | 0.00 | 0.00 | 0.00 | 82 | 1015.6 | |
| 20260508034516 | 61 | 0.0 | 0.0 | 0.00 | 0.00 | 0.00 | 82 | 1015.4 | |
| 20260508033536 | 61 | 0.0 | 0.0 | 0.00 | 0.00 | 0.00 | 82 | 1015.3 | |
| 20260508032517 | 61 | 0.0 | 0.0 | 0.00 | 0.00 | 0.00 | 81 | 1015.0 | |
| 20260508031536 | 61 | 0.0 | 0.0 | 0.00 | 0.00 | 0.00 | 80 | 1015.2 | |
| 20260508030517 | 62 | 0.0 | 0.0 | 0.00 | 0.00 | 0.00 | 80 | 1014.6 | |
| 20260508025537 | 62 | 0.0 | 0.0 | 0.00 | 0.00 | 0.00 | 80 | 1014.7 | |
| 20260508024537 | 62 | 0.0 | 0.0 | 0.00 | 0.00 | 0.00 | 80 | 1014.6 | |
| 20260508023517 | 62 | 0.0 | 0.0 | 0.00 | 0.00 | 0.00 | 80 | 1014.5 | |
| 20260508022516 | 62 | 0.0 | 0.9 | 0.00 | 0.00 | 0.00 | 81 | 1014.6 | |
| 20260508021536 | 63 | 0.0 | 0.9 | 0.00 | 0.00 | 0.00 | 81 | 1014.7 | |
| 20260508020516 | 63 | 135 | 1.7 | 2.6 | 0.00 | 0.00 | 0.00 | 80 | 1014.6 |
| 20260508015536 | 64 | 0.0 | 2.6 | 0.00 | 0.00 | 0.00 | 79 | 1014.5 | |
| 20260508014517 | 64 | 0.0 | 0.0 | 0.00 | 0.00 | 0.00 | 78 | 1014.5 | |
| 20260508013517 | 65 | 0.0 | 0.0 | 0.00 | 0.00 | 0.00 | 77 | 1014.6 | |
| 20260508012516 | 65 | 0.0 | 0.0 | 0.00 | 0.00 | 0.00 | 76 | 1014.6 | |
| 20260508011537 | 65 | 0.0 | 1.7 | 0.00 | 0.00 | 0.00 | 75 | 1014.6 | |
| 20260508010556 | 66 | 0.0 | 0.0 | 0.00 | 0.00 | 0.00 | 75 | 1014.5 | |
| 20260508005516 | 66 | 0.0 | 0.0 | 0.00 | 0.00 | 0.00 | 73 | 1014.5 | |
| 20260508004537 | 66 | 0.0 | 0.9 | 0.00 | 0.00 | 0.00 | 73 | 1014.5 | |
| 20260508003516 | 66 | 135 | 0.9 | 2.6 | 0.00 | 0.00 | 0.00 | 72 | 1014.5 |
| 20260508002516 | 66 | 135 | 0.9 | 2.6 | 0.00 | 0.00 | 0.00 | 71 | 1014.6 |
| 20260508001517 | 67 | 135 | 0.9 | 1.7 | 0.00 | 0.00 | 0.00 | 71 | 1014.8 |
| 20260508000517 | 67 | 135 | 0.9 | 3.5 | 0.00 | 0.00 | 0.00 | 70 | 1014.8 |
| 20260507235517 | 67 | 135 | 2.6 | 4.3 | 0.00 | 0.00 | 0.00 | 69 | 1015.2 |
| 20260507234516 | 67 | 135 | 1.7 | 3.5 | 0.00 | 0.00 | 0.00 | 69 | 1015.1 |
| 20260507233516 | 67 | 135 | 0.9 | 2.6 | 0.00 | 0.00 | 0.00 | 68 | 1014.9 |
| 20260507232517 | 67 | 0.0 | 2.6 | 0.00 | 0.00 | 0.00 | 69 | 1015.0 | |
| 20260507231516 | 67 | 0.0 | 1.7 | 0.00 | 0.00 | 0.00 | 68 | 1014.9 | |
| 20260507230516 | 67 | 135 | 1.7 | 4.3 | 0.00 | 0.00 | 0.00 | 68 | 1015.1 |
| 20260507225516 | 67 | 135 | 4.3 | 7.8 | 0.00 | 0.00 | 0.00 | 67 | 1015.3 |
| 20260507224517 | 68 | 135 | 3.5 | 7.0 | 0.00 | 0.00 | 0.00 | 67 | 1015.2 |
| 20260507223536 | 68 | 158 | 3.5 | 6.1 | 0.00 | 0.00 | 0.00 | 67 | 1015.3 |
| 20260507222516 | 68 | 158 | 3.5 | 6.1 | 0.00 | 0.15 | 0.00 | 66 | 1015.4 |
| 20260507221516 | 68 | 135 | 3.5 | 7.8 | 0.00 | 0.17 | 0.00 | 65 | 1015.6 |
| 20260507220516 | 68 | 158 | 3.5 | 7.0 | 0.00 | 0.17 | 0.00 | 64 | 1015.6 |
| 20260507215536 | 69 | 135 | 4.3 | 7.8 | 0.00 | 0.17 | 0.00 | 64 | 1015.6 |
| 20260507214517 | 69 | 113 | 4.3 | 7.0 | 0.00 | 0.17 | 0.00 | 62 | 1015.6 |
| 20260507213516 | 70 | 90 | 0.9 | 7.8 | 0.00 | 0.17 | 0.00 | 59 | 1015.8 |
| 20260507212516 | 70 | 0.0 | 0.0 | 0.00 | 0.17 | 0.00 | 56 | 1015.8 | |
| 20260507211516 | 70 | 0.0 | 0.0 | 0.00 | 0.17 | 0.00 | 56 | 1016.0 | |
| 20260507210516 | 70 | 0.0 | 0.0 | 0.00 | 0.17 | 0.00 | 55 | 1016.3 | |
| 20260507205516 | 70 | 23 | 1.7 | 4.3 | 0.00 | 0.17 | 0.00 | 55 | 1016.5 |
| 20260507204517 | 70 | 113 | 2.6 | 6.1 | 0.00 | 0.17 | 0.00 | 56 | 1016.6 |
| 20260507203516 | 70 | 113 | 3.5 | 6.1 | 0.00 | 0.17 | 0.00 | 55 | 1016.5 |
| 20260507202536 | 70 | 68 | 1.7 | 6.1 | 0.00 | 0.17 | 0.00 | 56 | 1016.4 |
| 20260507201516 | 70 | 68 | 1.7 | 4.3 | 0.00 | 0.17 | 0.00 | 54 | 1016.3 |
| 20260507200517 | 70 | 23 | 2.6 | 4.3 | 0.00 | 0.17 | 0.00 | 53 | 1016.3 |
| 20260507195516 | 70 | 45 | 1.7 | 7.0 | 0.00 | 0.17 | 0.00 | 53 | 1016.6 |
| 20260507194516 | 70 | 23 | 3.5 | 7.8 | 0.00 | 0.17 | 0.00 | 52 | 1016.8 |
| 20260507193516 | 71 | 45 | 3.5 | 7.0 | 0.00 | 0.17 | 0.00 | 53 | 1016.9 |
| 20260507192516 | 71 | 68 | 0.9 | 4.3 | 0.00 | 0.17 | 0.00 | 53 | 1017.2 |
| 20260507191516 | 72 | 338 | 2.6 | 7.0 | 0.00 | 0.17 | 0.00 | 52 | 1017.4 |
| 20260507190516 | 72 | 315 | 1.7 | 4.3 | 0.00 | 0.17 | 0.00 | 52 | 1017.9 |
| 20260507185516 | 72 | 23 | 0.9 | 7.0 | 0.00 | 0.17 | 0.00 | 52 | 1018.1 |
| 20260507184516 | 71 | 0 | 1.7 | 6.1 | 0.00 | 0.17 | 0.00 | 56 | 1017.9 |
| 20260507183516 | 70 | 338 | 4.3 | 10.4 | 0.00 | 0.17 | 0.00 | 54 | 1017.8 |
| 20260507182516 | 70 | 338 | 4.3 | 9.6 | 0.00 | 0.17 | 0.00 | 54 | 1017.8 |
| 20260507181517 | 70 | 338 | 5.2 | 10.4 | 0.00 | 0.17 | 0.00 | 55 | 1017.7 |
| 20260507180517 | 70 | 338 | 5.2 | 10.4 | 0.00 | 0.17 | 0.00 | 55 | 1017.9 |
| 20260507175556 | 69 | 315 | 4.3 | 8.7 | 0.00 | 0.17 | 0.00 | 61 | 1017.9 |
| 20260507174536 | 68 | 338 | 3.5 | 7.8 | 0.00 | 0.17 | 0.00 | 61 | 1018.1 |
| 20260507173516 | 68 | 338 | 7.0 | 10.4 | 0.00 | 0.17 | 0.00 | 60 | 1018.2 |
| 20260507172536 | 67 | 0 | 3.5 | 8.7 | 0.00 | 0.17 | 0.00 | 65 | 1018.3 |
| 20260507171516 | 67 | 315 | 3.5 | 7.0 | 0.00 | 0.17 | 0.00 | 64 | 1018.6 |
| 20260507170516 | 66 | 315 | 4.3 | 10.4 | 0.00 | 0.17 | 0.00 | 65 | 1018.6 |
| 20260507165516 | 66 | 315 | 3.5 | 7.8 | 0.00 | 0.17 | 0.00 | 65 | 1019.1 |
| 20260507164516 | 65 | 0 | 4.3 | 12.2 | 0.00 | 0.17 | 0.00 | 66 | 1019.3 |
| 20260507163516 | 65 | 0 | 2.6 | 7.0 | 0.00 | 0.17 | 0.00 | 67 | 1019.6 |
| 20260507162516 | 65 | 338 | 1.7 | 5.2 | 0.00 | 0.17 | 0.00 | 68 | 1019.7 |
| 20260507161516 | 64 | 338 | 2.6 | 8.7 | 0.00 | 0.17 | 0.00 | 68 | 1019.6 |
| 20260507160516 | 64 | 338 | 2.6 | 8.7 | 0.00 | 0.17 | 0.00 | 70 | 1019.7 |
| 20260507155516 | 64 | 23 | 2.6 | 7.0 | 0.00 | 0.17 | 0.00 | 71 | 1019.5 |
| 20260507154516 | 63 | 338 | 2.6 | 5.2 | 0.00 | 0.17 | 0.00 | 73 | 1019.4 |
| 20260507153516 | 63 | 338 | 3.5 | 7.0 | 0.00 | 0.17 | 0.00 | 75 | 1019.5 |
| 20260507152516 | 62 | 315 | 3.5 | 7.0 | 0.00 | 0.17 | 0.00 | 75 | 1019.5 |
| 20260507151516 | 62 | 338 | 3.5 | 7.8 | 0.00 | 0.17 | 0.00 | 77 | 1019.8 |
| 20260507150516 | 62 | 0 | 2.6 | 7.8 | 0.00 | 0.17 | 0.00 | 79 | 1019.8 |
| 20260507145516 | 61 | 315 | 1.7 | 4.3 | 0.00 | 0.17 | 0.00 | 81 | 1019.9 |
| 20260507144516 | 60 | 293 | 1.7 | 6.1 | 0.00 | 0.19 | 0.00 | 85 | 1020.0 |
| 20260507143536 | 59 | 293 | 1.7 | 7.0 | 0.00 | 0.24 | 0.00 | 87 | 1020.1 |
| 20260507142516 | 58 | 293 | 1.7 | 6.1 | 0.00 | 0.24 | 0.00 | 90 | 1019.9 |
| 20260507141536 | 58 | 293 | 1.7 | 6.1 | 0.00 | 0.24 | 0.00 | 91 | 1020.1 |
| 20260507140516 | 57 | 293 | 1.7 | 6.1 | 0.00 | 0.24 | 0.00 | 92 | 1019.9 |